QPF
0.15 0.19 0.22 0.19 0.14 0.12 0.10 0.06 0.04 0.03 0.02 0.03 0.03 0.02 0.01 0.01 0.01 0.01 0.01 0.03 0.03 0.02 0.02 0.02 0.02 0.01 0.01 0.01 0.01 0.01 0.01 0.01 0.01 0.01 0.02 0.02 0.02 0.02 0.02 0.02 0.02 0.03 0.04
0.12 0.11 0.10 0.10 0.08 0.08 0.07 0.05 0.04 0.03 0.02 0.02 0.02 0.01 0.01 0.01 0.01 0.01 0.01 0.03 0.05 0.03 0.03 0.01 0.01 0.01 0.01 0.01 0.01 0.01 0.00 0.00 0.01 0.01 0.01 0.02 0.02 0.01 0.01 0.02 0.02 0.04 0.06
0.08 0.11 0.09 0.06 0.05 0.05 0.04 0.03 0.03 0.02 0.02 0.02 0.02 0.01 0.01 0.01 0.01 0.01 0.01 0.01 0.03 0.02 0.01 0.01 0.00 0.00 0.00 0.00 0.01 0.00 0.00 0.00 0.00 0.00 0.01 0.01 0.01 0.01 0.00 0.01 0.02 0.04 0.06
0.08 0.08 0.08 0.06 0.04 0.03 0.04 0.03 0.02 0.02 0.02 0.02 0.01 0.01 0.01 0.01 0.01 0.01 0.01 0.01 0.01 0.01 0.01 0.00 0.00 0.00 0.00 0.00 0.00 0.00 0.00 0.00 0.00 0.00 0.00 0.00 0.01 0.01 0.00 0.00 0.01 0.02 0.02
0.11 0.07 0.05 0.05 0.03 0.02 0.06 0.04 0.03 0.03 0.03 0.01 0.00 0.01 0.01 0.01 0.01 0.01 0.00 0.00 0.00 0.00 0.00 0.00 0.00 0.00 0.00 0.00 0.00 0.00 0.00 0.00 0.00 0.00 0.00 0.00 0.00 0.00 0.00 0.00 0.00 0.00 0.01
0.06 0.04 0.03 0.03 0.02 0.02 0.02 0.02 0.02 0.02 0.01 0.01 0.00 0.01 0.01 0.01 0.01 0.01 0.00 0.00 0.00 0.00 0.00 0.00 0.00 0.00 0.00 0.00 0.00 0.00 0.00 0.00 0.00 0.00 0.00 0.00 0.00 0.00 0.00 0.00 0.00 0.00 0.00
0.02 0.02 0.01 0.01 0.01 0.01 0.00 0.01 0.01 0.01 0.01 0.00 0.00 0.01 0.00 0.00 0.00 0.00 0.00 0.00 0.00 0.00 0.00 0.00 0.00 0.00 0.00 0.00 0.00 0.00 0.00 0.00 0.00 0.00 0.00 0.00 0.00 0.00 0.00 0.00 0.00 0.00 0.00
0.01 0.01 0.01 0.01 0.00 0.00 0.00 0.01 0.01 0.01 0.00 0.00 0.00 0.00 0.00 0.00 0.00 0.00 0.00 0.00 0.00 0.00 0.00 0.00 0.00 0.00 0.00 0.00 0.00 0.00 0.00 0.00 0.00 0.00 0.00 0.00 0.00 0.00 0.00 0.00 0.00 0.00 0.00
0.00 0.00 0.01 0.01 0.00 0.00 0.00 0.00 0.00 0.00 0.00 0.00 0.00 0.00 0.00 0.00 0.00 0.00 0.00 0.00 0.00 0.00 0.00 0.00 0.00 0.00 0.00 0.00 0.00 0.00 0.00 0.00 0.00 0.00 0.00 0.00 0.00 0.00 0.00 0.00 0.00 0.00 0.00
0.00 0.00 0.01 0.00 0.00 0.00 0.00 0.00 0.00 0.00 0.00 0.00 0.00 0.00 0.00 0.00 0.00 0.00 0.00 0.00 0.00 0.00 0.00 0.00 0.00 0.00 0.00 0.00 0.00 0.00 0.00 0.00 0.00 0.00 0.00 0.00 0.00 0.00 0.00 0.00 0.00 0.00 0.01
0.00 0.00 0.00 0.00 0.00 0.00 0.00 0.00 0.00 0.00 0.00 0.00 0.00 0.00 0.00 0.00 0.00 0.00 0.00 0.00 0.00 0.00 0.00 0.00 0.00 0.00 0.00 0.00 0.00 0.00 0.00 0.00 0.00 0.00 0.00 0.00 0.00 0.00 0.00 0.00 0.00 0.00 0.01
0.00 0.00 0.00 0.00 0.00 0.00 0.00 0.00 0.00 0.00 0.00 0.00 0.00 0.00 0.00 0.00 0.00 0.00 0.00 0.00 0.00 0.00 0.00 0.00 0.00 0.00 0.00 0.00 0.00 0.00 0.00 0.00 0.00 0.00 0.00 0.00 0.00 0.00 0.00 0.00 0.00 0.00 0.00
0.00 0.00 0.00 0.00 0.00 0.00 0.00 0.00 0.00 0.00 0.00 0.00 0.00 0.00 0.00 0.00 0.00 0.00 0.00 0.00 0.00 0.00 0.00 0.00 0.00 0.00 0.00 0.00 0.00 0.00 0.00 0.00 0.00 0.00 0.00 0.00 0.00 0.00 0.00 0.00 0.00 0.00 0.00
0.00 0.00 0.00 0.00 0.00 0.00 0.00 0.00 0.00 0.00 0.00 0.00 0.00 0.00 0.00 0.00 0.00 0.00 0.00 0.00 0.00 0.00 0.00 0.00 0.00 0.00 0.00 0.00 0.00 0.00 0.00 0.00 0.00 0.00 0.00 0.00 0.00 0.00 0.00 0.00 0.00 0.00 0.00
0.00 0.00 0.00 0.00 0.00 0.00 0.00 0.00 0.00 0.00 0.00 0.00 0.00 0.00 0.00 0.00 0.00 0.00 0.00 0.00 0.00 0.00 0.00 0.00 0.00 0.00 0.00 0.00 0.00 0.00 0.00 0.00 0.00 0.00 0.00 0.00 0.00 0.00 0.00 0.00 0.00 0.00 0.00
0.00 0.00 0.00 0.00 0.00 0.00 0.00 0.00 0.00 0.00 0.00 0.00 0.00 0.00 0.00 0.00 0.00 0.00 0.00 0.00 0.00 0.00 0.00 0.00 0.00 0.00 0.00 0.00 0.00 0.00 0.00 0.00 0.00 0.00 0.00 0.00 0.00 0.00 0.00 0.00 0.00 0.00 0.00
0.00 0.00 0.00 0.00 0.00 0.00 0.00 0.00 0.00 0.00 0.00 0.00 0.00 0.00 0.00 0.00 0.00 0.00 0.00 0.00 0.00 0.00 0.00 0.00 0.00 0.00 0.00 0.00 0.00 0.00 0.00 0.00 0.00 0.00 0.00 0.00 0.00 0.00 0.00 0.00 0.00 0.00 0.00
0.00 0.00 0.00 0.00 0.00 0.00 0.00 0.00 0.00 0.00 0.00 0.00 0.00 0.00 0.00 0.00 0.00 0.00 0.00 0.00 0.00 0.00 0.00 0.00 0.00 0.00 0.00 0.00 0.00 0.00 0.00 0.00 0.00 0.00 0.00 0.00 0.00 0.00 0.00 0.00 0.00 0.00 0.00
0.00 0.00 0.00 0.00 0.00 0.00 0.00 0.00 0.00 0.00 0.00 0.01 0.00 0.00 0.00 0.00 0.00 0.00 0.00 0.00 0.00 0.00 0.00 0.00 0.00 0.00 0.00 0.00 0.00 0.00 0.00 0.00 0.00 0.00 0.00 0.00 0.00 0.00 0.00 0.00 0.00 0.00 0.00
0.00 0.00 0.00 0.00 0.00 0.00 0.00 0.00 0.00 0.00 0.00 0.00 0.00 0.00 0.00 0.00 0.00 0.00 0.00 0.00 0.00 0.00 0.00 0.00 0.00 0.00 0.00 0.00 0.00 0.00 0.00 0.00 0.00 0.00 0.00 0.00 0.00 0.00 0.00 0.00 0.00 0.00 0.00
0.00 0.00 0.00 0.00 0.00 0.00 0.00 0.00 0.00 0.00 0.00 0.00 0.00 0.00 0.00 0.00 0.00 0.00 0.00 0.00 0.00 0.00 0.00 0.00 0.00 0.00 0.00 0.00 0.00 0.00 0.00 0.00 0.00 0.00 0.00 0.00 0.00 0.00 0.00 0.00 0.00 0.00 0.00
0.00 0.00 0.00 0.00 0.00 0.00 0.00 0.00 0.00 0.00 0.00 0.00 0.00 0.00 0.00 0.00 0.00 0.00 0.00 0.00 0.00 0.00 0.00 0.00 0.00 0.00 0.00 0.00 0.00 0.00 0.00 0.00 0.00 0.00 0.00 0.00 0.00 0.00 0.00 0.00 0.00 0.00 0.00
0.01 0.01 0.00 0.00 0.00 0.00 0.00 0.00 0.00 0.01 0.01 0.00 0.00 0.00 0.00 0.00 0.00 0.00 0.00 0.00 0.00 0.00 0.00 0.00 0.00 0.00 0.00 0.00 0.00 0.00 0.00 0.00 0.00 0.00 0.00 0.00 0.00 0.00 0.00 0.00 0.00 0.00 0.00
0.01 0.01 0.00 0.00 0.01 0.00 0.00 0.01 0.01 0.01 0.01 0.00 0.00 0.00 0.00 0.00 0.00 0.00 0.00 0.00 0.00 0.00 0.00 0.00 0.00 0.00 0.00 0.00 0.00 0.00 0.00 0.00 0.00 0.00 0.00 0.00 0.00 0.00 0.00 0.00 0.00 0.00 0.00
0.01 0.01 0.01 0.01 0.01 0.01 0.01 0.01 0.01 0.01 0.00 0.00 0.00 0.01 0.01 0.00 0.00 0.00 0.00 0.00 0.00 0.00 0.00 0.00 0.00 0.00 0.00 0.00 0.00 0.00 0.00 0.00 0.00 0.00 0.00 0.00 0.00 0.00 0.00 0.00 0.00 0.00 0.00
0.03 0.03 0.03 0.02 0.02 0.01 0.01 0.01 0.01 0.01 0.01 0.01 0.01 0.01 0.01 0.00 0.00 0.00 0.00 0.00 0.00 0.00 0.00 0.00 0.00 0.00 0.00 0.00 0.00 0.00 0.00 0.00 0.00 0.00 0.00 0.00 0.00 0.00 0.00 0.00 0.00 0.01 0.01
MSLP
1015.20 1015.08 1014.95 1014.78 1014.60 1014.43 1014.30 1014.24 1014.28 1014.43 1014.68 1015.00 1015.36 1015.69 1015.97 1016.14 1016.21 1016.17 1016.08 1015.96 1015.86 1015.83 1015.89 1016.06 1016.30 1016.60 1016.93 1017.25 1017.52 1017.75 1017.92 1018.04 1018.13 1018.18 1018.21 1018.21 1018.16 1018.05 1017.87 1017.62 1017.32 1016.99 1016.66
1015.02 1014.96 1014.87 1014.72 1014.53 1014.34 1014.18 1014.12 1014.18 1014.37 1014.69 1015.09 1015.52 1015.91 1016.20 1016.37 1016.40 1016.31 1016.15 1015.98 1015.84 1015.79 1015.84 1016.01 1016.27 1016.59 1016.92 1017.22 1017.47 1017.68 1017.83 1017.94 1018.03 1018.12 1018.19 1018.24 1018.24 1018.17 1018.02 1017.78 1017.46 1017.09 1016.70
1014.80 1014.81 1014.77 1014.67 1014.51 1014.33 1014.19 1014.14 1014.23 1014.47 1014.84 1015.29 1015.77 1016.19 1016.49 1016.64 1016.64 1016.50 1016.29 1016.06 1015.89 1015.82 1015.87 1016.04 1016.29 1016.60 1016.90 1017.17 1017.39 1017.56 1017.68 1017.79 1017.89 1018.01 1018.13 1018.25 1018.32 1018.32 1018.21 1018.00 1017.69 1017.30 1016.88
1014.56 1014.65 1014.69 1014.65 1014.55 1014.41 1014.30 1014.28 1014.40 1014.67 1015.07 1015.55 1016.05 1016.47 1016.77 1016.90 1016.86 1016.69 1016.44 1016.19 1016.00 1015.92 1015.96 1016.11 1016.35 1016.63 1016.90 1017.12 1017.30 1017.42 1017.51 1017.61 1017.72 1017.87 1018.05 1018.23 1018.37 1018.44 1018.40 1018.24 1017.96 1017.58 1017.14
1014.29 1014.46 1014.59 1014.64 1014.62 1014.54 1014.47 1014.48 1014.62 1014.90 1015.30 1015.78 1016.26 1016.67 1016.96 1017.07 1017.02 1016.84 1016.59 1016.33 1016.14 1016.06 1016.09 1016.23 1016.45 1016.68 1016.90 1017.07 1017.19 1017.27 1017.33 1017.41 1017.53 1017.71 1017.93 1018.17 1018.38 1018.51 1018.54 1018.43 1018.19 1017.84 1017.41
1014.00 1014.26 1014.49 1014.63 1014.68 1014.66 1014.64 1014.67 1014.80 1015.06 1015.44 1015.88 1016.34 1016.72 1016.99 1017.11 1017.06 1016.90 1016.67 1016.45 1016.28 1016.21 1016.25 1016.37 1016.55 1016.74 1016.91 1017.02 1017.09 1017.12 1017.14 1017.21 1017.33 1017.52 1017.77 1018.04 1018.29 1018.48 1018.56 1018.50 1018.31 1018.00 1017.61
1013.69 1014.03 1014.34 1014.57 1014.70 1014.74 1014.74 1014.77 1014.89 1015.11 1015.43 1015.83 1016.23 1016.60 1016.85 1016.98 1016.97 1016.86 1016.69 1016.52 1016.39 1016.35 1016.39 1016.50 1016.65 1016.79 1016.90 1016.95 1016.96 1016.95 1016.95 1016.99 1017.10 1017.29 1017.54 1017.83 1018.10 1018.31 1018.42 1018.40 1018.26 1018.00 1017.66
1013.34 1013.76 1014.16 1014.47 1014.66 1014.74 1014.76 1014.78 1014.85 1015.01 1015.27 1015.61 1015.96 1016.30 1016.55 1016.71 1016.75 1016.71 1016.61 1016.52 1016.45 1016.44 1016.49 1016.59 1016.70 1016.79 1016.84 1016.85 1016.82 1016.77 1016.73 1016.75 1016.84 1017.01 1017.25 1017.51 1017.77 1017.98 1018.10 1018.11 1018.01 1017.80 1017.52
1012.97 1013.46 1013.93 1014.30 1014.54 1014.65 1014.68 1014.68 1014.71 1014.81 1015.00 1015.26 1015.57 1015.88 1016.14 1016.33 1016.44 1016.48 1016.47 1016.46 1016.45 1016.48 1016.54 1016.62 1016.69 1016.74 1016.74 1016.70 1016.62 1016.54 1016.49 1016.48 1016.55 1016.69 1016.89 1017.12 1017.34 1017.52 1017.62 1017.64 1017.57 1017.41 1017.20
1012.56 1013.12 1013.65 1014.08 1014.36 1014.50 1014.53 1014.50 1014.49 1014.53 1014.66 1014.86 1015.13 1015.41 1015.68 1015.91 1016.08 1016.20 1016.28 1016.34 1016.39 1016.45 1016.51 1016.57 1016.60 1016.61 1016.57 1016.49 1016.39 1016.28 1016.21 1016.19 1016.23 1016.33 1016.48 1016.65 1016.82 1016.95 1017.03 1017.04 1016.99 1016.88 1016.72
1012.13 1012.75 1013.34 1013.81 1014.12 1014.28 1014.32 1014.29 1014.25 1014.25 1014.33 1014.49 1014.71 1014.98 1015.25 1015.51 1015.73 1015.91 1016.06 1016.17 1016.27 1016.34 1016.40 1016.43 1016.43 1016.40 1016.32 1016.22 1016.10 1015.99 1015.91 1015.87 1015.89 1015.95 1016.05 1016.16 1016.27 1016.34 1016.38 1016.38 1016.33 1016.26 1016.16
1011.68 1012.34 1012.97 1013.47 1013.82 1014.01 1014.07 1014.06 1014.02 1014.00 1014.05 1014.18 1014.37 1014.62 1014.89 1015.16 1015.41 1015.63 1015.82 1015.97 1016.08 1016.16 1016.21 1016.22 1016.18 1016.11 1016.01 1015.89 1015.77 1015.66 1015.58 1015.54 1015.54 1015.57 1015.62 1015.67 1015.71 1015.74 1015.73 1015.70 1015.66 1015.61 1015.56
1011.19 1011.89 1012.54 1013.07 1013.45 1013.68 1013.79 1013.81 1013.79 1013.79 1013.84 1013.96 1014.13 1014.35 1014.61 1014.88 1015.13 1015.37 1015.56 1015.72 1015.84 1015.91 1015.94 1015.92 1015.86 1015.77 1015.65 1015.52 1015.40 1015.30 1015.23 1015.19 1015.18 1015.18 1015.19 1015.20 1015.19 1015.16 1015.11 1015.06 1015.01 1014.98 1014.96
1010.67 1011.37 1012.02 1012.57 1012.99 1013.27 1013.44 1013.52 1013.56 1013.61 1013.68 1013.79 1013.96 1014.16 1014.40 1014.64 1014.88 1015.10 1015.29 1015.44 1015.54 1015.60 1015.60 1015.56 1015.48 1015.37 1015.24 1015.12 1015.00 1014.91 1014.85 1014.82 1014.80 1014.79 1014.77 1014.74 1014.68 1014.61 1014.53 1014.46 1014.40 1014.37 1014.38
1010.11 1010.78 1011.41 1011.97 1012.42 1012.76 1013.00 1013.17 1013.29 1013.40 1013.51 1013.65 1013.81 1014.00 1014.21 1014.42 1014.63 1014.82 1014.98 1015.11 1015.19 1015.23 1015.21 1015.15 1015.05 1014.93 1014.80 1014.67 1014.56 1014.48 1014.43 1014.40 1014.38 1014.36 1014.33 1014.27 1014.18 1014.08 1013.98 1013.89 1013.82 1013.79 1013.79
1009.52 1010.12 1010.71 1011.25 1011.72 1012.12 1012.45 1012.71 1012.93 1013.13 1013.31 1013.48 1013.66 1013.84 1014.02 1014.20 1014.37 1014.52 1014.65 1014.74 1014.80 1014.81 1014.78 1014.70 1014.59 1014.45 1014.32 1014.19 1014.08 1014.01 1013.96 1013.93 1013.91 1013.88 1013.84 1013.76 1013.66 1013.54 1013.42 1013.31 1013.24 1013.19 1013.19
1008.90 1009.40 1009.92 1010.44 1010.93 1011.38 1011.79 1012.16 1012.49 1012.77 1013.03 1013.25 1013.45 1013.63 1013.79 1013.94 1014.08 1014.19 1014.29 1014.35 1014.38 1014.37 1014.32 1014.22 1014.09 1013.95 1013.80 1013.67 1013.56 1013.48 1013.42 1013.39 1013.37 1013.34 1013.28 1013.20 1013.10 1012.97 1012.84 1012.73 1012.64 1012.58 1012.56
1008.28 1008.66 1009.10 1009.57 1010.07 1010.57 1011.06 1011.52 1011.95 1012.33 1012.66 1012.94 1013.18 1013.37 1013.53 1013.66 1013.77 1013.85 1013.92 1013.96 1013.96 1013.93 1013.85 1013.74 1013.59 1013.43 1013.26 1013.11 1012.99 1012.89 1012.83 1012.79 1012.76 1012.72 1012.67 1012.59 1012.49 1012.37 1012.24 1012.11 1012.01 1011.94 1011.89
1007.69 1007.95 1008.30 1008.73 1009.22 1009.75 1010.30 1010.84 1011.36 1011.83 1012.24 1012.58 1012.85 1013.06 1013.23 1013.35 1013.44 1013.51 1013.55 1013.57 1013.55 1013.49 1013.39 1013.25 1013.08 1012.89 1012.70 1012.53 1012.38 1012.27 1012.19 1012.14 1012.10 1012.07 1012.02 1011.95 1011.85 1011.74 1011.61 1011.48 1011.36 1011.27 1011.20
1007.20 1007.34 1007.60 1007.97 1008.44 1008.99 1009.58 1010.19 1010.77 1011.31 1011.78 1012.17 1012.49 1012.73 1012.90 1013.03 1013.12 1013.17 1013.20 1013.19 1013.14 1013.06 1012.93 1012.76 1012.56 1012.35 1012.13 1011.94 1011.77 1011.64 1011.54 1011.48 1011.44 1011.41 1011.37 1011.31 1011.22 1011.11 1010.98 1010.85 1010.72 1010.60 1010.49
1006.83 1006.88 1007.06 1007.39 1007.83 1008.38 1008.98 1009.62 1010.24 1010.82 1011.33 1011.76 1012.11 1012.38 1012.57 1012.71 1012.79 1012.84 1012.84 1012.81 1012.74 1012.63 1012.47 1012.27 1012.04 1011.80 1011.57 1011.35 1011.17 1011.02 1010.92 1010.86 1010.82 1010.79 1010.76 1010.70 1010.62 1010.52 1010.39 1010.24 1010.08 1009.93 1009.78
1006.65 1006.62 1006.75 1007.03 1007.44 1007.96 1008.56 1009.19 1009.82 1010.41 1010.93 1011.38 1011.74 1012.02 1012.23 1012.37 1012.45 1012.48 1012.47 1012.41 1012.31 1012.16 1011.98 1011.75 1011.50 1011.25 1011.00 1010.78 1010.59 1010.45 1010.35 1010.30 1010.26 1010.24 1010.21 1010.15 1010.07 1009.96 1009.82 1009.65 1009.46 1009.27 1009.08
1006.68 1006.62 1006.71 1006.94 1007.31 1007.79 1008.34 1008.94 1009.53 1010.10 1010.61 1011.04 1011.40 1011.67 1011.87 1012.00 1012.07 1012.08 1012.05 1011.96 1011.83 1011.65 1011.43 1011.19 1010.93 1010.67 1010.43 1010.22 1010.05 1009.92 1009.84 1009.80 1009.77 1009.75 1009.72 1009.66 1009.56 1009.43 1009.25 1009.05 1008.83 1008.59 1008.35
1006.94 1006.88 1006.94 1007.14 1007.46 1007.87 1008.36 1008.88 1009.41 1009.91 1010.37 1010.76 1011.08 1011.33 1011.50 1011.61 1011.64 1011.63 1011.55 1011.43 1011.26 1011.05 1010.82 1010.56 1010.30 1010.06 1009.84 1009.66 1009.53 1009.43 1009.38 1009.35 1009.33 1009.31 1009.26 1009.18 1009.05 1008.88 1008.67 1008.42 1008.15 1007.87 1007.58
1007.44 1007.38 1007.44 1007.60 1007.85 1008.19 1008.58 1009.01 1009.44 1009.85 1010.22 1010.54 1010.80 1010.99 1011.11 1011.17 1011.16 1011.10 1010.98 1010.81 1010.61 1010.37 1010.12 1009.86 1009.62 1009.40 1009.22 1009.09 1009.00 1008.95 1008.93 1008.92 1008.90 1008.86 1008.79 1008.66 1008.49 1008.27 1008.00 1007.71 1007.40 1007.07 1006.75
1008.13 1008.10 1008.14 1008.26 1008.45 1008.70 1008.99 1009.29 1009.60 1009.90 1010.16 1010.38 1010.55 1010.66 1010.72 1010.71 1010.64 1010.51 1010.33 1010.11 1009.87 1009.60 1009.34 1009.09 1008.87 1008.70 1008.57 1008.49 1008.45 1008.45 1008.45 1008.45 1008.43 1008.36 1008.24 1008.06 1007.83 1007.55 1007.23 1006.88 1006.53 1006.18 1005.84
Thickness
5732 5736 5739 5740 5740 5740 5738 5737 5737 5737 5736 5733 5731 5727 5725 5725 5724 5723 5721 5720 5718 5716 5714 5712 5709 5707 5704 5702 5701 5700 5698 5697 5698 5696 5696 5700 5703 5705 5707 5708 5709 5710 5711
5730 5733 5735 5737 5737 5736 5736 5736 5736 5735 5734 5733 5731 5728 5725 5723 5721 5719 5718 5717 5715 5713 5710 5708 5705 5703 5700 5697 5696 5694 5691 5690 5691 5687 5684 5682 5688 5694 5700 5701 5702 5703 5704
5731 5732 5734 5735 5736 5735 5735 5736 5734 5734 5732 5732 5729 5725 5722 5718 5715 5713 5713 5712 5711 5709 5707 5705 5702 5699 5696 5692 5690 5689 5685 5682 5682 5682 5678 5673 5671 5677 5686 5691 5693 5694 5697
5736 5734 5734 5734 5735 5736 5736 5735 5734 5732 5731 5730 5726 5721 5716 5711 5710 5710 5709 5709 5708 5706 5704 5702 5699 5695 5692 5689 5686 5684 5681 5678 5674 5674 5674 5673 5671 5667 5669 5677 5682 5685 5688
5738 5736 5737 5737 5738 5738 5736 5734 5732 5730 5729 5727 5724 5719 5714 5711 5709 5708 5706 5705 5704 5702 5701 5698 5695 5691 5687 5685 5682 5679 5677 5674 5671 5668 5667 5666 5665 5664 5661 5661 5667 5674 5679
5741 5740 5740 5739 5738 5738 5736 5734 5731 5728 5727 5724 5720 5717 5713 5709 5706 5704 5701 5700 5698 5697 5696 5693 5690 5686 5683 5680 5677 5675 5672 5669 5667 5664 5662 5659 5657 5656 5655 5653 5655 5660 5667
5742 5740 5739 5737 5737 5736 5735 5733 5729 5726 5724 5721 5718 5715 5712 5708 5705 5701 5699 5696 5694 5692 5690 5688 5685 5681 5678 5676 5672 5669 5666 5664 5661 5659 5656 5655 5653 5652 5650 5648 5649 5651 5657
5745 5744 5743 5741 5739 5737 5735 5732 5727 5724 5722 5719 5716 5714 5711 5707 5704 5701 5698 5695 5691 5689 5686 5684 5680 5677 5674 5671 5667 5664 5661 5658 5655 5653 5651 5649 5647 5647 5645 5644 5643 5643 5645
5748 5747 5745 5743 5741 5738 5735 5732 5727 5723 5720 5718 5715 5711 5709 5706 5703 5700 5697 5693 5690 5687 5683 5680 5676 5673 5669 5666 5662 5658 5655 5652 5649 5646 5644 5642 5641 5640 5640 5639 5638 5636 5635
5750 5749 5747 5745 5742 5739 5736 5732 5728 5724 5720 5717 5714 5712 5708 5705 5702 5698 5694 5691 5688 5684 5680 5676 5672 5668 5665 5661 5656 5652 5648 5645 5641 5639 5636 5634 5633 5632 5632 5631 5631 5631 5630
5752 5750 5748 5746 5743 5739 5735 5731 5726 5723 5719 5716 5714 5711 5707 5704 5700 5696 5693 5689 5685 5681 5677 5673 5668 5664 5660 5656 5651 5646 5642 5638 5634 5632 5629 5627 5626 5624 5623 5623 5622 5622 5623
5756 5753 5749 5744 5741 5737 5734 5730 5726 5723 5720 5716 5713 5710 5706 5703 5699 5695 5692 5688 5683 5679 5674 5670 5664 5660 5655 5651 5646 5641 5637 5632 5628 5625 5622 5619 5618 5616 5614 5614 5613 5613 5614
5754 5750 5746 5743 5740 5736 5733 5730 5727 5723 5720 5717 5712 5708 5704 5700 5697 5693 5689 5685 5680 5676 5671 5666 5661 5656 5651 5646 5641 5636 5631 5626 5622 5618 5614 5612 5609 5607 5606 5605 5604 5605 5607
5754 5748 5744 5742 5740 5737 5734 5730 5727 5724 5721 5716 5711 5706 5703 5699 5695 5691 5687 5682 5677 5672 5667 5663 5657 5652 5647 5642 5637 5631 5625 5620 5615 5611 5607 5604 5602 5600 5598 5598 5597 5597 5596
5751 5748 5744 5741 5738 5735 5733 5730 5727 5724 5720 5714 5709 5705 5702 5698 5693 5689 5684 5679 5674 5670 5664 5659 5654 5648 5643 5638 5632 5626 5620 5614 5609 5604 5601 5598 5597 5595 5594 5593 5591 5589 5588
5753 5750 5746 5742 5739 5737 5733 5730 5726 5722 5718 5713 5708 5705 5700 5695 5690 5686 5681 5676 5671 5666 5660 5655 5649 5643 5639 5634 5628 5621 5614 5608 5602 5598 5595 5592 5591 5590 5589 5588 5587 5585 5582
5754 5750 5748 5745 5742 5739 5735 5730 5725 5721 5715 5711 5707 5702 5697 5692 5688 5683 5677 5672 5666 5661 5655 5650 5645 5639 5634 5629 5623 5617 5609 5602 5597 5592 5589 5587 5587 5584 5582 5581 5580 5579 5578
5756 5753 5750 5745 5742 5739 5735 5730 5724 5718 5713 5708 5703 5699 5694 5689 5684 5678 5673 5667 5662 5656 5651 5646 5640 5634 5630 5625 5619 5612 5605 5598 5593 5588 5584 5581 5579 5578 5576 5574 5573 5571 5571
5760 5757 5753 5748 5742 5737 5732 5726 5719 5714 5709 5704 5700 5696 5691 5685 5679 5673 5668 5663 5657 5652 5647 5642 5636 5630 5626 5621 5615 5608 5600 5593 5588 5584 5581 5577 5574 5573 5571 5567 5565 5564 5564
5759 5755 5750 5744 5738 5733 5728 5721 5714 5709 5705 5702 5698 5693 5687 5681 5675 5670 5664 5659 5653 5648 5643 5637 5632 5626 5621 5617 5611 5604 5595 5588 5584 5580 5576 5573 5570 5568 5564 5560 5557 5556 5557
5754 5751 5745 5739 5735 5729 5723 5716 5710 5706 5704 5700 5694 5688 5683 5677 5671 5665 5660 5654 5648 5643 5637 5632 5628 5622 5618 5613 5608 5601 5592 5586 5580 5575 5571 5568 5566 5562 5559 5555 5552 5552 5551
5747 5745 5739 5733 5729 5724 5718 5711 5706 5704 5699 5693 5687 5682 5676 5671 5667 5659 5654 5649 5643 5637 5631 5626 5621 5618 5613 5609 5604 5598 5591 5584 5576 5572 5568 5564 5561 5557 5554 5551 5549 5548 5545
5740 5738 5733 5727 5722 5718 5713 5706 5702 5697 5691 5685 5680 5675 5670 5665 5660 5653 5648 5642 5636 5630 5626 5620 5615 5612 5608 5603 5599 5594 5588 5581 5573 5569 5565 5560 5556 5553 5550 5548 5546 5543 5540
5731 5729 5724 5718 5712 5709 5705 5701 5696 5691 5684 5678 5672 5667 5662 5657 5653 5648 5643 5636 5631 5625 5620 5615 5610 5606 5601 5597 5592 5587 5581 5576 5569 5564 5559 5556 5552 5549 5547 5545 5543 5541 5538
5720 5718 5713 5708 5704 5700 5695 5691 5687 5682 5675 5670 5665 5660 5655 5650 5645 5641 5637 5633 5629 5624 5618 5613 5608 5602 5597 5596 5590 5582 5576 5570 5564 5557 5552 5548 5546 5544 5543 5541 5540 5538 5536
5707 5704 5701 5696 5692 5688 5685 5682 5678 5673 5666 5659 5655 5650 5646 5641 5637 5633 5631 5629 5625 5621 5616 5610 5605 5601 5597 5593 5586 5579 5572 5565 5558 5550 5546 5544 5542 5540 5540 5538 5537 5536 5535